User: anonymous   Login
Location: Skalnate Pleso
(49.1889°N, 20.2450°E)
Time: 21:08:54
(UTC+01:00)
Language:

METEOR-M - Orbit

View from above orbital plane
View from above orbital plane
View from above satellite
View from above satellite

Ground track
Ground track

The orbit data is extracted from the following two-line orbital elements,

1 35865U 09049A   20020.58275857 +.00000029 +00000-0 +31922-4 0  9992
2 35865 098.4264 014.0516 0001175 263.0343 097.0702 14.22223542536617
Epoch (UTC): 20 January 2020 13:59:10
Eccentricity: 0.0001175
inclination: 98.4264°
perigee height: 817 km
apogee height: 818 km
right ascension of ascending node: 14.0516°
argument of perigee: 263.0343°
revolutions per day: 14.22223542
mean anomaly at epoch: 97.0702°
orbit number at epoch: 53661

The dashed part of the orbit path shows where the satellite is in the earth's shadow,  

DLR